Humboldt, Iowa, United States (50548)
Lat: 42.72N, Lon: 94.22W
Wx Zone: IAZ024
Local Info
Past Weather Observations for Thursday, March 26, 2015

NOTE: This archive is for the closest National Weather Service station to Humboldt. Information may differ from the station used for current weather conditions.

Click here for Long-term Archive

Time Weather Temperature Dewpoint Humidity Pressure Winds Precip Visibility
23:55
Overcast
28°F / -2°C 16°F / -9°C 59% 30.21 in
(1023 mb)
N 9.2 mph
(N 15 kph)
- 10SM
23:35
Overcast
28°F / -2°C 16°F / -9°C 59% 30.21 in
(1023 mb)
N 10.4 mph
(N 17 kph)
- 10SM
23:15
Overcast
30°F / -1°C 16°F / -9°C 55% 30.21 in
(1023 mb)
N 9.2 mph
(N 15 kph)
- 10SM
22:55
Overcast
30°F / -1°C 18°F / -8°C 59% 30.21 in
(1023 mb)
N 9.2 mph
(N 15 kph)
- 10SM
22:35
Overcast
30°F / -1°C 18°F / -8°C 59% 30.21 in
(1023 mb)
NNW 6.9 mph
(NNW 11 kph)
- 10SM
22:15
Overcast
30°F / -1°C 19°F / -7°C 64% 30.21 in
(1023 mb)
N 9.2 mph
(N 15 kph)
- 10SM
21:55
Overcast
30°F / -1°C 18°F / -8°C 59% 30.18 in
(1022 mb)
N 9.2 mph
(N 15 kph)
- 10SM
21:35
Overcast
30°F / -1°C 18°F / -8°C 59% 30.18 in
(1022 mb)
N 10.4 mph
(N 17 kph)
- 10SM
21:15
Overcast
30°F / -1°C 19°F / -7°C 64% 30.18 in
(1022 mb)
N 9.2 mph
(N 15 kph)
- 10SM
20:55
Overcast
30°F / -1°C 19°F / -7°C 64% 30.18 in
(1022 mb)
N 11.5 mph
(N 19 kph)
- 10SM
20:35
Overcast
32°F / 0°C 19°F / -7°C 60% 30.18 in
(1022 mb)
N 10.4 mph
(N 17 kph)
- 10SM
20:15
Mostly Cloudy
30°F / -1°C 19°F / -7°C 64% 30.18 in
(1022 mb)
N 12.7 mph
(N 20 kph)
- 10SM
19:55
Mostly Cloudy
32°F / 0°C 19°F / -7°C 60% 30.18 in
(1022 mb)
N 8.1 mph
(N 13 kph)
- 10SM
19:35
Overcast
32°F / 0°C 19°F / -7°C 60% 30.15 in
(1021 mb)
N 11.5 mph
(N 19 kph)
- 10SM
19:15
Overcast
34°F / 1°C 19°F / -7°C 56% 30.15 in
(1021 mb)
N 8.1 mph
(N 13 kph)
- 10SM
18:55
Overcast
34°F / 1°C 19°F / -7°C 56% 30.15 in
(1021 mb)
N 8.1 mph
(N 13 kph)
- 10SM
18:35
Overcast
36°F / 2°C 21°F / -6°C 56% 30.15 in
(1021 mb)
N 8.1 mph
(N 13 kph)
- 10SM
18:15
Overcast
36°F / 2°C 21°F / -6°C 56% 30.12 in
(1020 mb)
N 9.2 mph
(N 15 kph)
- 10SM
17:55
Overcast
36°F / 2°C 21°F / -6°C 56% 30.12 in
(1020 mb)
NNW 9.2 mph
(NNW 15 kph)
- 10SM
17:35
Overcast
37°F / 3°C 21°F / -6°C 52% 30.12 in
(1020 mb)
N 8.1 mph
(N 13 kph)
- 10SM
17:15
Mostly Cloudy
37°F / 3°C 21°F / -6°C 52% 30.12 in
(1020 mb)
NNW 9.2 mph
(NNW 15 kph)
- 10SM
16:55
Mostly Cloudy
37°F / 3°C 21°F / -6°C 52% 30.12 in
(1020 mb)
NNW 10.4 mph
(NNW 17 kph)
- 10SM
16:35
Mostly Cloudy
37°F / 3°C 23°F / -5°C 56% 30.12 in
(1020 mb)
NW 9.2 mph
(NW 15 kph)
- 10SM
16:15
Overcast
37°F / 3°C 23°F / -5°C 56% 30.12 in
(1020 mb)
NNW 5.8 mph
(NNW 9 kph)
- 10SM
15:55
Overcast
37°F / 3°C 21°F / -6°C 52% 30.12 in
(1020 mb)
NW 6.9 mph
(NW 11 kph)
- 10SM
15:35
Overcast
37°F / 3°C 23°F / -5°C 56% 30.12 in
(1020 mb)
NNW 9.2 mph
(NNW 15 kph)
- 10SM
15:15
Overcast
39°F / 4°C 23°F / -5°C 52% 30.12 in
(1020 mb)
NNW 8.1 mph
(NNW 13 kph)
- 10SM
14:55
Mostly Cloudy
39°F / 4°C 23°F / -5°C 52% 30.12 in
(1020 mb)
NNW 8.1 mph
(NNW 13 kph)
- 10SM
14:35
Mostly Cloudy
39°F / 4°C 23°F / -5°C 52% 30.12 in
(1020 mb)
NNW 12.7 mph
(NNW 20 kph)
- 10SM
14:15
Mostly Cloudy
39°F / 4°C 23°F / -5°C 52% 30.12 in
(1020 mb)
NW 9.2 mph
(NW 15 kph)
- 10SM
13:55
Mostly Cloudy
39°F / 4°C 25°F / -4°C 56% 30.12 in
(1020 mb)
NW 9.2 mph
(NW 15 kph)
- 10SM
13:35
Overcast
39°F / 4°C 25°F / -4°C 56% 30.12 in
(1020 mb)
NNW 10.4 mph
(NNW 17 kph)
- 10SM
13:15
Overcast
39°F / 4°C 25°F / -4°C 56% 30.15 in
(1021 mb)
NNW 10.4 mph
(NNW 17 kph)
- 10SM
12:55
Overcast
39°F / 4°C 25°F / -4°C 56% 30.15 in
(1021 mb)
NNW 9.2 mph
(NNW 15 kph)
- 10SM
12:35
Overcast
39°F / 4°C 25°F / -4°C 56% 30.15 in
(1021 mb)
NW 10.4 mph
(NW 17 kph)
- 10SM
12:15
Overcast
39°F / 4°C 23°F / -5°C 52% 30.15 in
(1021 mb)
N 8.1 mph
(N 13 kph)
- 10SM
11:55
Overcast
39°F / 4°C 25°F / -4°C 56% 30.15 in
(1021 mb)
NNW 9.2 mph
(NNW 15 kph)
- 10SM
11:35
Overcast
37°F / 3°C 23°F / -5°C 56% 30.15 in
(1021 mb)
NNW 10.4 mph
(NNW 17 kph)
- 10SM
11:15
Overcast
37°F / 3°C 23°F / -5°C 56% 30.15 in
(1021 mb)
NW 11.5 mph
(NW 19 kph)
- 10SM
10:55
Overcast
39°F / 4°C 23°F / -5°C 52% 30.15 in
(1021 mb)
NW 11.5 mph
(NW 19 kph)
- 10SM
10:35
Mostly Cloudy
39°F / 4°C 23°F / -5°C 52% 30.15 in
(1021 mb)
NNW 13.8 mph
(NNW 22 kph)
- 10SM
10:15
Mostly Cloudy
37°F / 3°C 25°F / -4°C 60% 30.15 in
(1021 mb)
NNW 11.5 mph
(NNW 19 kph)
- 10SM
09:55
Partly Cloudy
37°F / 3°C 23°F / -5°C 56% 30.15 in
(1021 mb)
NW 13.8 mph
(NW 22 kph)
- 10SM
09:35
Clear
37°F / 3°C 25°F / -4°C 60% 30.18 in
(1022 mb)
NW 10.4 mph
(NW 17 kph)
- 10SM
09:15
Clear
37°F / 3°C 25°F / -4°C 60% 30.18 in
(1022 mb)
NW 10.4 mph
(NW 17 kph)
- 10SM
08:55
Clear
36°F / 2°C 25°F / -4°C 65% 30.18 in
(1022 mb)
NNW 9.2 mph
(NNW 15 kph)
- 10SM
08:35
Clear
34°F / 1°C 25°F / -4°C 70% 30.18 in
(1022 mb)
NW 9.2 mph
(NW 15 kph)
- 10SM
08:15
Clear
34°F / 1°C 25°F / -4°C 70% 30.15 in
(1021 mb)
NW 6.9 mph
(NW 11 kph)
- 10SM
07:55
Clear
32°F / 0°C 25°F / -4°C 75% 30.15 in
(1021 mb)
NW 6.9 mph
(NW 11 kph)
- 10SM
07:35
Clear
30°F / -1°C 23°F / -5°C 75% 30.15 in
(1021 mb)
NW 6.9 mph
(NW 11 kph)
- 10SM
07:15
Clear
30°F / -1°C 21°F / -6°C 69% 30.15 in
(1021 mb)
NW 5.8 mph
(NW 9 kph)
- 10SM
06:55
Clear
28°F / -2°C 21°F / -6°C 74% 30.15 in
(1021 mb)
NW 5.8 mph
(NW 9 kph)
- 10SM
06:35
Clear
28°F / -2°C 19°F / -7°C 69% 30.15 in
(1021 mb)
NW 3.5 mph
(NW 6 kph)
- 10SM
06:15
Clear
27°F / -3°C 19°F / -7°C 74% 30.15 in
(1021 mb)
NW 3.5 mph
(NW 6 kph)
- 10SM
05:55
Clear
27°F / -3°C 19°F / -7°C 74% 30.12 in
(1020 mb)
WNW 3.5 mph
(WNW 6 kph)
- 10SM
05:35
Clear
28°F / -2°C 19°F / -7°C 69% 30.12 in
(1020 mb)
NW 3.5 mph
(NW 6 kph)
- 10SM
05:15
Clear
28°F / -2°C 19°F / -7°C 69% 30.12 in
(1020 mb)
NW 3.5 mph
(NW 6 kph)
- 10SM
04:55
Clear
28°F / -2°C 21°F / -6°C 74% 30.12 in
(1020 mb)
WNW 4.6 mph
(WNW 7 kph)
- 10SM
04:35
Clear
28°F / -2°C 21°F / -6°C 74% 30.12 in
(1020 mb)
NW 3.5 mph
(NW 6 kph)
- 10SM
04:15
Clear
28°F / -2°C 21°F / -6°C 74% 30.12 in
(1020 mb)
NW 3.5 mph
(NW 6 kph)
- 10SM
03:55
Clear
28°F / -2°C 21°F / -6°C 74% 30.12 in
(1020 mb)
NW 5.8 mph
(NW 9 kph)
- 10SM
03:35
Clear
28°F / -2°C 21°F / -6°C 74% 30.12 in
(1020 mb)
NW 4.6 mph
(NW 7 kph)
- 10SM
03:15
Clear
30°F / -1°C 21°F / -6°C 69% 30.12 in
(1020 mb)
NW 4.6 mph
(NW 7 kph)
- 10SM
02:55
Clear
30°F / -1°C 21°F / -6°C 69% 30.12 in
(1020 mb)
NW 5.8 mph
(NW 9 kph)
- 10SM
02:35
Clear
30°F / -1°C 21°F / -6°C 69% 30.12 in
(1020 mb)
NW 6.9 mph
(NW 11 kph)
- 10SM
02:15
Clear
30°F / -1°C 21°F / -6°C 69% 30.15 in
(1021 mb)
WNW 8.1 mph
(WNW 13 kph)
- 10SM
01:55
Clear
30°F / -1°C 21°F / -6°C 69% 30.15 in
(1021 mb)
NW 5.8 mph
(NW 9 kph)
- 10SM
01:35
Clear
30°F / -1°C 21°F / -6°C 69% 30.15 in
(1021 mb)
NW 6.9 mph
(NW 11 kph)
- 10SM
01:15
Clear
30°F / -1°C 23°F / -5°C 75% 30.15 in
(1021 mb)
NW 4.6 mph
(NW 7 kph)
- 10SM
00:55
Clear
30°F / -1°C 23°F / -5°C 75% 30.15 in
(1021 mb)
Calm - 10SM
00:35
Clear
30°F / -1°C 23°F / -5°C 75% 30.15 in
(1021 mb)
NW 3.5 mph
(NW 6 kph)
- 10SM
00:15
Clear
32°F / 0°C 23°F / -5°C 69% 30.18 in
(1022 mb)
NNW 3.5 mph
(NNW 6 kph)
- 10SM
Time Weather Temperature Dewpoint Humidity Pressure Winds Precip Visibility


Weather for websites

WeatherForYou.com, LLC is not responsible for any damages or problems caused by this service. Current weather conditions are obtained from the closest station including government and personal stations which may have varying degrees of accuracy. Weather forecasts are derived from the NOAA NDFD. Like all things, this site belongs to Jesus Christ... He just trusts me to maintain it. If you have any questions or comments email webmaster@weatherforyou.com

Copyright © 2015, WeatherForYou.com LLC. All rights reserved.